Hourly Data Report for October 20, 2014

All times are specified in Local Standard Time (LST). Add 1 hour to adjust for Daylight Saving Time where and when it is observed.

KUGAARUK CLIMATE
NUNAVUT

68°32'15.060" N
89°47'47.020" W
15.80 m
2303094
71407
NBB

Download Data

Hourly Data (October 2014)
Hourly Data Report for October 20, 2014
Temp Definition
°C
Dew Point Temp Definition
°C
Rel Hum Definition
%
Wind Dir Definition
10's deg

Wind Spd Definition
km/h
Visibility Definition
km
Stn Press Definition
kPa
Hmdx Definition


Wind Chill Definition


Weather Definition


TIME
00:00 -3.5 -4.3 94 33 21   100.24   -10 LegendNANA
01:00 -2.9 -3.9 93 33 28   100.33   -10 LegendNANA
02:00 -3.5 -4.6 93 35 30   100.42   -11 LegendNANA
03:00 -4.3 -5.6 91 35 26   100.56   -12 LegendNANA
04:00 -5.7 -6.9 92 34 36   100.63   -15 LegendNANA
05:00 -6.3 -7.3 92 34 33   100.71   -15 LegendNANA
06:00 -6.9 -8.4 89 33 26   100.81   -15 LegendNANA
07:00 -7.4 -9.0 89 29 6   100.91   -11 LegendNANA
08:00 -8.1 -9.9 87 30 16   100.99   -15 LegendNANA
09:00 -9.0 -10.8 86 30 20   101.06   -17 LegendNANA
10:00 -9.3 -11.1 87 28 18   101.11   -17 LegendNANA
11:00 -9.6 -12.1 82 28 16   101.17   -16 LegendNANA
12:00 -9.5 -11.8 84 28 14   101.19   -16 LegendNANA
13:00 -10.0 -12.1 84 30 15   101.23   -17 LegendNANA
14:00 -9.9 -11.7 87 28 17   101.29   -17 LegendNANA
15:00 -11.0 -12.7 87 25 15   101.33   -18 LegendNANA
16:00 -11.1 -12.6 89 28 17   101.31   -19 LegendNANA
17:00 -11.0 -12.2 90 28 11   101.35   -17 LegendNANA
18:00 -11.3 -12.6 90 28 14   101.31   -18 LegendNANA
19:00 -11.4 -12.5 91 28 10   101.26   -17 LegendNANA
20:00 -11.2 -12.4 91 28 9   101.26   -16 LegendNANA
21:00 -11.0 -12.2 91 34 3   101.21   -13 LegendNANA
22:00 -11.7 -12.9 91 24 11   101.25   -18 LegendNANA
23:00 -11.9 -13.2 90 23 4   101.22   -14 LegendNANA

Notes on Data Quality.

Legend

  • E = Estimated
  • M = Missing
  • NA = Not Available
  • ‡ = Partner data that is not subject to review by the National Climate Archives
Date modified: